Location: Moscow Pond
(43.6842°N, 73.2366°W)
Time: 22:12:00
(UTC+00:00)

NOSS 2-1 (E) - Pass Details

Date: 08 November 2025
Orbit: 385 x 1749 km, 63.3° (Epoch: 07 May)

Event Time Altitude Azimuth Distance (km) Brightness Sun altitude
Exits shadow 10:36:47 17° 298° (WNW) 1,185 4.4 -11.4°
Maximum altitude 10:37:32 19° 316° (NW) 1,113 4.4 -11.3°
Drops below altitude 10° 10:39:50 10° 3° (N) 1,460 5.4 -10.9°
Sets 10:42:11 0° 24° (NNE) 2,281 6.6 -10.5°
